Location: Adamstown South Public School
(32.9318°S, 151.7012°E)
Time: 18:19:13
(UTC+00:00)

Cosmos 494 Rocket - Visible Passes

Search period start: 26 September 2020 00:00
Search period end: 06 October 2020 00:00
Orbit: 742 x 771 km, 74.1° (Epoch: 25 September)

Date Brightness Start Highest point End Pass type
(mag) Time Alt. Az. Time Alt. Az. Time Alt. Az.
29 Sep 6.2 09:51:59 13° SSE 09:51:59 13° SSE 09:52:31 10° SSE visible
29 Sep 6.8 11:31:50 13° SSW 11:31:50 13° SSW 11:32:52 10° SSW visible
30 Sep 5.2 09:08:36 21° ESE 09:08:36 21° ESE 09:11:20 10° SE visible
30 Sep 5.6 10:48:05 30° W 10:48:47 31° WSW 10:53:25 10° S visible
01 Oct 5.7 08:25:14 10° ENE 08:27:00 12° E 08:28:47 10° ESE visible
01 Oct 4.4 10:03:00 10° NNW 10:08:09 61° WSW 10:13:20 10° S visible
01 Oct 7.1 18:54:23 10° SSE 18:56:52 13° ESE 18:59:19 10° E visible
02 Oct 3.9 09:22:30 10° N 09:27:40 67° ENE 09:32:51 10° SSE visible
02 Oct 7.0 11:07:52 10° W 11:09:56 12° WSW 11:12:00 10° SW visible
03 Oct 4.6 08:42:40 10° NNE 08:47:18 33° E 08:51:57 10° SE visible
03 Oct 6.2 10:24:58 10° WNW 10:29:06 23° WSW 10:33:14 10° SSW visible
04 Oct 5.1 09:43:27 10° NW 09:48:25 44° WSW 09:53:23 10° S visible
04 Oct 6.9 18:33:43 10° SSE 18:37:15 18° ESE 18:40:45 10° ENE visible
05 Oct 4.0 09:02:39 10° NNW 09:07:52 88° WSW 09:13:06 10° SSE visible
